Regional Weather Roundup
Issued by NWS

Current Version | Previous Version | Text Only | Print | Product List | Glossary On
Versions: 1 2 3 4 5 6 7 8 9 10 11 12 13 14 15 16 17 18 19 20 21 22 23 24 25 26 27 28 29 30 31 32 33 34 35 36 37 38 39 40 41 42 43 44 45 46 47 48 49 50
000
ASPQ40 PGUM 210412
RWRPQ
WEATHER ROUNDUP FOR THE MARIANAS AND MICRONESIA
NATIONAL WEATHER SERVICE TIYAN GU
200 PM CHST TUE FEB 21 2017

GUZ001>004-210500-
MARIANA ISLANDS-

CITY           SKY/WX    TMP DP  RH WIND       PRES   REMARKS
GUAM AIRPORT   MOSUNNY   84  75  74 E9        29.96F HX  92
ANDERSEN AFB   MOSUNNY   82  75  78 SE13      29.97F
ROTA AIRPORT   MOSUNNY   82  73  74 E12       29.96F
TINIAN AP      MOSUNNY   86  77  74 E8        29.95F HX  97
SAIPAN AP      MOSUNNY   84  73  70 MISG      29.96F HX  91

$$

PMZ161-210500-
REPUBLIC OF PALAU-

CITY           SKY/WX    TMP DP  RH WIND       PRES   REMARKS
KOROR AP       CLOUDY    81  75  83 E12       29.87F
KOROR WSO      CLOUDY    84  75  74 E13       29.88F HX  92

$$

PMZ171>174-210500-
FEDERATED STATES OF MICRONESIA-

CITY           SKY/WX    TMP DP  RH WIND       PRES   REMARKS
YAP AIRPORT    CLOUDY    84  77  79 NE8       29.87F HX  94
CHUUK AP       CLOUDY    88  75  66 NE10      29.82F HX  97
POHNPEI AP     PTSUNNY   88  77  70 NE8       29.79F HX 100
POHNPEI WSO    PTSUNNY   86  73  66 NE12      29.83F HX  93
KOSRAE AP      NOT AVBL

$$

PMZ181-210500-
REPUBLIC OF THE MARSHALL ISLANDS-

CITY           SKY/WX    TMP DP  RH WIND       PRES   REMARKS
KWAJALEIN AP   MOSUNNY   88  75  66 E18       29.82S HX  97
MAJURO AP      PTSUNNY   84  77  79 NE14      29.80S HX  94
MAJURO WSO     PTSUNNY   84  77  79 NE10      29.78F HX  94

$$




USA.gov is the U.S. government's official web portal to all federal, state and local government web resources and services.